When you browse on this site, cookies collect data to enhance your experience and personalize the content and advertising you see.
Visit our Privacy Policy to learn more. By continuing to use the site, you agree to this use of cookies and data.
  • In Slovakia
  • List of Countries
  • For 7 days
  • Water Temperature
  • Satellite Maps
  • Weather Map
  • Weather Widgets
  • user-avatar
    Login

    Hourly Weather Tuchubaevo

    Today, 20 May, Monday

    Time Temperature Precipitation Wind Pressure Humidity
    00:00 0°C° 0 mm 3 mps 747 mmHg 91%
    01:00 0°C° 0 mm 3 mps 747 mmHg 93%
    02:00 0°C° 0 mm 3 mps 747 mmHg 94%
    03:00 -1°C° 0 mm 3 mps 747 mmHg 95%
    04:00 -1°C° 0 mm 3 mps 748 mmHg 96%
    05:00 -1°C° 0 mm 4 mps 748 mmHg 93%
    06:00 +1°C° 0 mm 4 mps 748 mmHg 90%
    07:00 +3°C° 0 mm 4 mps 748 mmHg 87%
    08:00 +2°C° 0 mm 5 mps 748 mmHg 84%
    09:00 +3°C° 0 mm 5 mps 748 mmHg 80%
    10:00 +5°C° 0 mm 5 mps 748 mmHg 77%
    11:00 +6°C° 0.3 mm 5 mps 748 mmHg 73%
    12:00 +7°C° 0.3 mm 5 mps 748 mmHg 68%
    13:00 +8°C° 0.3 mm 6 mps 748 mmHg 64%
    14:00 +8°C° 0.3 mm 6 mps 748 mmHg 60%
    15:00 +9°C° 0.3 mm 6 mps 748 mmHg 56%
    16:00 +9°C° 0 mm 5 mps 748 mmHg 51%
    17:00 +10°C° 0.1 mm 4 mps 748 mmHg 55%
    18:00 +10°C° 0.1 mm 4 mps 749 mmHg 59%
    19:00 +9°C° 0.1 mm 3 mps 749 mmHg 63%
    20:00 +7°C° 0 mm 3 mps 749 mmHg 66%
    21:00 +5°C° 0 mm 3 mps 749 mmHg 69%
    22:00 +3°C° 0 mm 3 mps 749 mmHg 72%
    23:00 +3°C° 0 mm 3 mps 749 mmHg 73%

    Tomorrow, 21 May, Tuesday

    Time Temperature Precipitation Wind Pressure Humidity
    00:00 +2°C° 0 mm 3 mps 749 mmHg 75%
    01:00 +2°C° 0 mm 3 mps 749 mmHg 76%
    02:00 +2°C° 0 mm 3 mps 749 mmHg 76%
    03:00 +1°C° 0 mm 3 mps 750 mmHg 77%
    04:00 +2°C° 0 mm 2 mps 750 mmHg 77%
    05:00 +3°C° 0 mm 3 mps 750 mmHg 73%
    06:00 +4°C° 0 mm 3 mps 750 mmHg 68%
    07:00 +6°C° 0 mm 4 mps 751 mmHg 64%
    08:00 +7°C° 0 mm 4 mps 751 mmHg 57%
    09:00 +8°C° 0 mm 5 mps 751 mmHg 51%
    10:00 +9°C° 0 mm 6 mps 751 mmHg 44%
    11:00 +10°C° 0 mm 6 mps 751 mmHg 43%
    12:00 +10°C° 0 mm 6 mps 751 mmHg 42%
    13:00 +11°C° 0 mm 6 mps 750 mmHg 41%
    14:00 +11°C° 0 mm 6 mps 750 mmHg 41%
    15:00 +11°C° 0 mm 6 mps 750 mmHg 41%
    16:00 +13°C° 0 mm 5 mps 750 mmHg 41%
    17:00 +12°C° 0 mm 4 mps 751 mmHg 46%
    18:00 +11°C° 0 mm 4 mps 751 mmHg 52%
    19:00 +11°C° 0 mm 3 mps 751 mmHg 57%
    20:00 +9°C° 0 mm 3 mps 751 mmHg 59%
    21:00 +7°C° 0 mm 2 mps 751 mmHg 60%
    22:00 +6°C° 0 mm 2 mps 751 mmHg 62%
    23:00 +5°C° 0 mm 2 mps 751 mmHg 64%

    Day after tomorrow, 22 May, Wednesday

    Time Temperature Precipitation Wind Pressure Humidity
    00:00 +5°C° 0 mm 2 mps 751 mmHg 66%
    01:00 +4°C° 0 mm 2 mps 751 mmHg 68%
    02:00 +4°C° 0 mm 2 mps 751 mmHg 69%
    03:00 +3°C° 0 mm 2 mps 752 mmHg 71%
    04:00 +3°C° 0 mm 2 mps 752 mmHg 72%
    05:00 +4°C° 0 mm 2 mps 752 mmHg 69%
    06:00 +6°C° 0 mm 2 mps 752 mmHg 67%
    07:00 +7°C° 0 mm 3 mps 752 mmHg 64%
    08:00 +9°C° 0 mm 3 mps 752 mmHg 58%
    09:00 +11°C° 0 mm 3 mps 751 mmHg 51%
    10:00 +13°C° 0 mm 3 mps 751 mmHg 45%
    11:00 +13°C° 0 mm 3 mps 751 mmHg 43%
    12:00 +14°C° 0 mm 3 mps 751 mmHg 41%
    13:00 +15°C° 0 mm 4 mps 750 mmHg 38%
    14:00 +15°C° 0 mm 4 mps 750 mmHg 39%
    15:00 +15°C° 0 mm 4 mps 750 mmHg 40%
    16:00 +15°C° 0 mm 4 mps 749 mmHg 41%
    17:00 +16°C° 0 mm 3 mps 749 mmHg 47%
    18:00 +14°C° 0 mm 3 mps 749 mmHg 54%
    19:00 +14°C° 0 mm 2 mps 748 mmHg 61%
    20:00 +13°C° 0 mm 2 mps 748 mmHg 63%
    21:00 +12°C° 0 mm 2 mps 748 mmHg 65%
    22:00 +9°C° 0 mm 2 mps 748 mmHg 68%
    23:00 +9°C° 0 mm 2 mps 748 mmHg 73%

    23 May, Thursday

    Time Temperature Precipitation Wind Pressure Humidity
    00:00 +8°C° 0 mm 3 mps 748 mmHg 79%
    01:00 +8°C° 0 mm 3 mps 748 mmHg 85%
    02:00 +7°C° 0 mm 3 mps 747 mmHg 88%
    03:00 +7°C° 0 mm 3 mps 747 mmHg 92%
    04:00 +7°C° 0 mm 3 mps 746 mmHg 95%
    05:00 +8°C° 0.1 mm 3 mps 746 mmHg 93%
    06:00 +7°C° 0.1 mm 4 mps 745 mmHg 92%
    07:00 +8°C° 0.1 mm 5 mps 744 mmHg 90%
    08:00 +9°C° 0.8 mm 5 mps 744 mmHg 92%
    09:00 +10°C° 0.8 mm 5 mps 743 mmHg 93%
    10:00 +11°C° 0.8 mm 4 mps 742 mmHg 94%
    11:00 +13°C° 1.3 mm 5 mps 742 mmHg 91%
    12:00 +14°C° 1.3 mm 5 mps 741 mmHg 88%
    13:00 +15°C° 1.3 mm 6 mps 741 mmHg 85%
    14:00 +15°C° 3 mm 6 mps 740 mmHg 87%
    15:00 +14°C° 3 mm 6 mps 740 mmHg 90%
    16:00 +14°C° 3 mm 6 mps 739 mmHg 92%
    17:00 +14°C° 0.7 mm 6 mps 739 mmHg 92%
    18:00 +14°C° 0.7 mm 6 mps 739 mmHg 92%
    19:00 +14°C° 0.7 mm 5 mps 739 mmHg 92%
    20:00 +12°C° 1.3 mm 5 mps 739 mmHg 92%
    21:00 +10°C° 1.3 mm 5 mps 739 mmHg 91%
    22:00 +8°C° 1.3 mm 5 mps 740 mmHg 91%
    23:00 +7°C° 0 mm 5 mps 740 mmHg 90%

    24 May, Friday

    Time Temperature Precipitation Wind Pressure Humidity
    00:00 +6°C° 0 mm 5 mps 741 mmHg 90%
    01:00 +5°C° 0 mm 4 mps 742 mmHg 89%
    02:00 +4°C° 0 mm 4 mps 743 mmHg 89%
    03:00 +1°C° 0 mm 4 mps 744 mmHg 88%
    04:00 +1°C° 0 mm 3 mps 745 mmHg 88%
    05:00 +2°C° 0 mm 3 mps 746 mmHg 83%
    06:00 +3°C° 0 mm 4 mps 746 mmHg 79%
    07:00 +4°C° 0 mm 4 mps 747 mmHg 74%
    08:00 +5°C° 0 mm 4 mps 747 mmHg 70%
    09:00 +6°C° 0 mm 5 mps 747 mmHg 65%
    10:00 +7°C° 0 mm 5 mps 748 mmHg 60%
    11:00 +8°C° 0 mm 5 mps 748 mmHg 58%
    12:00 +8°C° 0 mm 5 mps 748 mmHg 55%
    13:00 +9°C° 0 mm 6 mps 748 mmHg 52%
    14:00 +9°C° 0 mm 6 mps 749 mmHg 50%
    15:00 +10°C° 0 mm 5 mps 749 mmHg 49%
    16:00 +10°C° 0 mm 5 mps 749 mmHg 48%
    17:00 +9°C° 0 mm 5 mps 749 mmHg 52%
    18:00 +10°C° 0 mm 4 mps 749 mmHg 57%
    19:00 +9°C° 0 mm 3 mps 750 mmHg 62%
    20:00 +8°C° 0 mm 3 mps 750 mmHg 63%
    21:00 +5°C° 0 mm 3 mps 750 mmHg 65%
    22:00 +4°C° 0 mm 3 mps 751 mmHg 66%
    23:00 +3°C° 0 mm 3 mps 751 mmHg 68%

    25 May, Saturday

    Time Temperature Precipitation Wind Pressure Humidity
    00:00 +4°C° 0 mm 2 mps 751 mmHg 69%
    01:00 +3°C° 0 mm 2 mps 752 mmHg 70%
    02:00 +2°C° 0 mm 2 mps 752 mmHg 72%
    03:00 +3°C° 0 mm 1 mps 752 mmHg 73%
    04:00 +2°C° 0 mm 1 mps 753 mmHg 75%
    05:00 +4°C° 0 mm 1 mps 753 mmHg 70%
    06:00 +6°C° 0 mm 1 mps 753 mmHg 65%
    07:00 +7°C° 0 mm 1 mps 754 mmHg 60%
    08:00 +8°C° 0 mm 2 mps 754 mmHg 56%
    09:00 +9°C° 0 mm 3 mps 754 mmHg 52%
    10:00 +11°C° 0 mm 3 mps 754 mmHg 48%
    11:00 +12°C° 0 mm 4 mps 754 mmHg 47%
    12:00 +12°C° 0 mm 4 mps 754 mmHg 46%
    13:00 +13°C° 0 mm 4 mps 754 mmHg 45%
    14:00 +13°C° 0 mm 4 mps 754 mmHg 45%
    15:00 +14°C° 0 mm 3 mps 754 mmHg 45%
    16:00 +14°C° 0 mm 3 mps 754 mmHg 45%
    17:00 +14°C° 0 mm 2 mps 754 mmHg 49%
    18:00 +14°C° 0 mm 1 mps 754 mmHg 54%
    19:00 +12°C° 0 mm 0 mps 754 mmHg 58%
    20:00 +12°C° 0 mm 1 mps 754 mmHg 60%
    21:00 +9°C° 0 mm 2 mps 755 mmHg 63%
    22:00 +7°C° 0 mm 2 mps 755 mmHg 65%
    23:00 +7°C° 0 mm 2 mps 755 mmHg 67%
    Show more